Barking Sands, HI

11:57 AM HST on February 20, 2018 (GMT -1000)
Barking Sands PMRF

Weather History for PHBK - March, 2014

Change the Weather History Date:

Friday, March 28, 2014

  Actual Average Record
Temperature  
Mean Temperature 76 °F -  
Max Temperature 81 °F 82 °F 88 °F (1959)
Min Temperature 72 °F 63 °F 58 °F (1957)
Cooling Degree Days 12    
Growing Degree Days 26 (Base 50)    
Moisture  
Dew Point 65 °F    
Average Humidity 67    
Maximum Humidity 74    
Minimum Humidity 50    
Precipitation  
Precipitation 0.00 in - - ()
Sea Level Pressure  
Sea Level Pressure 30.05 in    
Wind  
Wind Speed 6 mph (NNE)    
Max Wind Speed 14 mph    
Max Gust Speed -    
Visibility 10 miles    
Events      
Averages and records for this station are not official NWS values.
T = Trace of Precipitation, MM = Missing Value Source: NWS Daily Summary

Daily Weather History Graph

Daily Weather History Graph

Search for Another Location

Airport or City:

Trip Planner

Search our weather history database for the weather conditions in past years. The results will help you decide how hot, cold, wet, or windy it might be!

Date:

Astronomy

Mar. 28, 2014 Rise Set
Actual Time 6:35 AM HST 6:53 PM HST
Civil Twilight 6:13 AM HST 7:15 PM HST
Nautical Twilight 5:46 AM HST 7:41 PM HST
Astronomical Twilight 5:20 AM HST 8:07 PM HST
Moon 4:59 AM HST (3/28) 5:13 PM HST (3/28)
Length of Visible Light 13h 02m
Length of Day
12h 17m
Waning Crescent, 5% of the Moon is Illuminated
Mar 28
Waning Crescent
Mar 30
New
Apr 6
First Quarter
Apr 14
Full
Apr 21
Last Quarter

Hourly Weather History & Observations

Time (HST) Temp. Heat Index Dew Point Humidity Pressure Visibility Wind Dir Wind Speed Gust Speed Precip Events Conditions
12:56 AM - - - N/A% 30.08 in 10.0 mi ENE 4.6 mph - N/A   Mostly Cloudy
1:53 AM - - - N/A% 30.06 in 10.0 mi NE 3.5 mph - N/A   Mostly Cloudy
1:56 AM - - - N/A% 30.06 in 10.0 mi NE 5.8 mph - N/A   Mostly Cloudy
2:10 AM - - - N/A% 30.05 in 10.0 mi ENE 4.6 mph - N/A   Scattered Clouds
2:56 AM - - - N/A% 30.04 in 10.0 mi ENE 4.6 mph - N/A   Mostly Cloudy
3:56 AM - - - N/A% 30.03 in 10.0 mi North 4.6 mph - N/A   Mostly Cloudy
4:56 AM - - - N/A% 30.04 in 10.0 mi North 4.6 mph - N/A   Partly Cloudy
5:56 AM - - - N/A% 30.05 in 10.0 mi North 5.8 mph - N/A   Clear
6:56 AM - - - N/A% 30.06 in 10.0 mi ENE 3.5 mph - N/A   Clear
7:56 AM - - - N/A% 30.07 in 10.0 mi Calm Calm - N/A   Clear
8:56 AM 77.0 °F - 66.9 °F 71% 30.08 in 10.0 mi North 9.2 mph - N/A   Clear
9:56 AM 78.1 °F - 66.9 °F 68% 30.09 in 10.0 mi North 12.7 mph - N/A   Clear
10:56 AM 79.0 °F - 69.1 °F 72% 30.09 in 10.0 mi North 13.8 mph - N/A   Clear
11:56 AM 80.1 °F 82.7 °F 68.0 °F 67% 30.07 in 10.0 mi NNW 11.5 mph - N/A   Clear
12:56 PM 79.0 °F - 68.0 °F 69% 30.05 in 10.0 mi NNW 12.7 mph - N/A   Clear
1:56 PM 80.1 °F 82.7 °F 68.0 °F 67% 30.04 in 10.0 mi NNW 12.7 mph - N/A   Clear
2:56 PM 81.0 °F 82.7 °F 64.9 °F 58% 30.01 in 10.0 mi NNW 10.4 mph - N/A   Clear
3:56 PM 79.0 °F - 59.0 °F 50% 30.01 in 10.0 mi NNW 8.1 mph - N/A   Clear
4:56 PM 77.0 °F - 66.0 °F 69% 30.01 in 10.0 mi North 11.5 mph - N/A   Clear
5:56 PM 75.9 °F - 66.9 °F 74% 30.00 in 10.0 mi North 9.2 mph - N/A   Clear
6:56 PM 75.0 °F - 66.0 °F 73% 30.03 in 10.0 mi NE 3.5 mph - N/A   Clear
7:56 PM 73.9 °F - 61.0 °F 64% 30.04 in 10.0 mi Calm Calm - N/A   Clear
8:56 PM 73.0 °F - 62.1 °F 68% 30.05 in 10.0 mi East 4.6 mph - N/A   Clear
9:56 PM 73.0 °F - 63.0 °F 71% 30.05 in 10.0 mi Calm Calm - N/A   Clear
10:56 PM 72.0 °F - 60.1 °F 66% 30.06 in 10.0 mi Calm Calm - N/A   Clear
11:56 PM 72.0 °F - 57.0 °F 59% 30.04 in 10.0 mi Calm Calm - N/A   Clear